Weather History for NFNA - January, 2010

Change the Weather History Date:

Saturday, January 9, 2010

  Actual Average Record
Temperature  
Mean Temperature 81 °F -  
Max Temperature 84 °F - - ()
Min Temperature 78 °F - - ()
Cooling Degree Days 16    
Growing Degree Days 31 (Base 50)    
Moisture  
Dew Point 74 °F    
Average Humidity 80    
Maximum Humidity 89    
Minimum Humidity 62    
Precipitation  
Precipitation 0.00 in - - ()
Sea Level Pressure  
Sea Level Pressure 29.81 in    
Wind  
Wind Speed 9 mph ()    
Max Wind Speed 16 mph    
Max Gust Speed -    
Visibility 12.0 miles    
Events      
T = Trace of Precipitation, MM = Missing Value Source: Averaged Metar Reports

Daily Weather History Graph

Daily Weather History Graph

Search for Another Location

Airport or City:

Trip Planner

Search our weather history database for the weather conditions in past years. The results will help you decide how hot, cold, wet, or windy it might be!

Date:

Astronomy

Jan. 09, 2010 Rise Set
Actual Time 6:38 AM FJST 7:47 PM FJST
Civil Twilight 6:14 AM FJST 8:10 PM FJST
Nautical Twilight 5:45 AM FJST 8:39 PM FJST
Astronomical Twilight 5:16 AM FJST 9:08 PM FJST
Moon 1:21 AM FJST (1/9) 2:35 PM FJST (1/9)
Length of Visible Light 13h 56m
Length of Day
13h 08m
Waning Crescent, 34% of the Moon is Illuminated
Jan 9
Waning Crescent
Jan 15
New
Jan 23
First Quarter
Jan 30
Full
Feb 6
Last Quarter

Hourly Weather History & Observations

Time (FJST) Temp. Heat Index Dew Point Humidity Pressure Visibility Wind Dir Wind Speed Gust Speed Precip Events Conditions
12:00 AM 78.8 °F - 75.2 °F 89% 29.86 in 24.9 mi East 6.9 mph - N/A   Partly Cloudy
1:00 AM 79 °F - 75 °F 83% 29.87 in 12 mi East 6.9 mph - -   Partly Cloudy
1:00 AM 78.8 °F - 75.2 °F 89% 29.86 in 24.9 mi East 6.9 mph - N/A   Scattered Clouds
2:00 AM 78.8 °F - 75.2 °F 89% 29.83 in 24.9 mi East 6.9 mph - N/A   Mostly Cloudy
3:00 AM 78.8 °F - 75.2 °F 89% 29.80 in 24.9 mi East 9.2 mph - N/A   Mostly Cloudy
4:00 AM 78 °F - 74 °F 85% 29.81 in 12 mi East 8.1 mph - -   Partly Cloudy
4:00 AM 78.8 °F - 75.2 °F 89% 29.80 in 24.9 mi East 8.1 mph - N/A   Mostly Cloudy
5:00 AM 78.8 °F - 75.2 °F 89% 29.77 in 24.9 mi East 6.9 mph - N/A   Scattered Clouds
6:00 AM 78.8 °F - 73.4 °F 83% 29.80 in 24.9 mi East 11.5 mph - N/A   Mostly Cloudy
7:00 AM 78 °F - 74 °F 84% 29.81 in 31 mi East 11.5 mph - -   Partly Cloudy
7:00 AM 78.8 °F - 73.4 °F 83% 29.80 in 31.1 mi East 11.5 mph - N/A   Mostly Cloudy
8:00 AM 78.8 °F - 73.4 °F 83% 29.83 in 31.1 mi East 11.5 mph - N/A   Mostly Cloudy
9:00 AM 80.6 °F 85.4 °F 73.4 °F 79% 29.83 in 31.1 mi East 13.8 mph - N/A   Mostly Cloudy
10:00 AM 83 °F - 74 °F 69% 29.84 in 31 mi ENE 16.1 mph - -   Partly Cloudy
10:00 AM 82.4 °F 89.5 °F 75.2 °F 79% 29.83 in 31.1 mi ENE 16.1 mph - N/A   Scattered Clouds
11:00 AM 82.4 °F 88.2 °F 73.4 °F 74% 29.83 in 31.1 mi ESE 13.8 mph - N/A   Scattered Clouds
12:00 PM 82.4 °F 88.2 °F 73.4 °F 74% 29.83 in 31.1 mi East 13.8 mph - N/A   Scattered Clouds
1:00 PM 84 °F - 74 °F 64% 29.80 in 31 mi ESE 15.0 mph - -   Partly Cloudy
1:00 PM 84.2 °F 90.9 °F 73.4 °F 70% 29.80 in 31.1 mi ESE 15.0 mph - N/A   Scattered Clouds
2:00 PM 84.2 °F 90.9 °F 73.4 °F 70% 29.80 in 31.1 mi East 11.5 mph - N/A   Scattered Clouds
3:00 PM 82.4 °F 89.5 °F 75.2 °F 79% 29.80 in 31.1 mi ESE 16.1 mph - N/A   Scattered Clouds
4:00 PM 84 °F - 73 °F 62% 29.78 in 31 mi ESE 16.1 mph - -   Partly Cloudy
4:00 PM 84.2 °F 90.9 °F 73.4 °F 70% 29.77 in 31.1 mi ESE 16.1 mph - N/A   Mostly Cloudy
5:00 PM 84.2 °F 90.9 °F 73.4 °F 70% 29.77 in 31.1 mi ESE 16.1 mph - N/A   Scattered Clouds
6:00 PM 80.6 °F 85.4 °F 73.4 °F 79% 29.77 in 31.1 mi ESE 11.5 mph - N/A   Scattered Clouds
7:00 PM 81 °F - 74 °F 72% 29.79 in 31 mi ESE 11.5 mph - -   Partly Cloudy
7:00 PM 80.6 °F 85.4 °F 73.4 °F 79% 29.77 in 31.1 mi ESE 11.5 mph - N/A   Scattered Clouds
8:00 PM 78.8 °F - 73.4 °F 83% 29.80 in 31.1 mi ESE 11.5 mph - N/A   Scattered Clouds
9:00 PM 78.8 °F - 75.2 °F 89% 29.80 in 24.9 mi East 11.5 mph - N/A   Partly Cloudy
10:00 PM 78 °F - 75 °F 89% 29.83 in 12 mi ESE 11.5 mph - -   Partly Cloudy
10:00 PM 78.8 °F - 75.2 °F 89% 29.80 in 24.9 mi ESE 11.5 mph - N/A   Partly Cloudy
11:00 PM 78.8 °F - 73.4 °F 83% 29.83 in 24.9 mi East 5.8 mph - N/A   Partly Cloudy